Location: Ottobeuren
(47.9410°N, 10.3007°E)
Time: 15:56:55
(UTC+02:00)

BlueWalker 3 - Pass Details

Date: 04 March 2024
Orbit: 485 x 495 km, 53.2° (Epoch: 25 April)

Event Time Altitude Azimuth Distance (km) Brightness Sun altitude
Rises 19:21:58 0° 296° (WNW) 2,561 7.0 -13.1°
Reaches altitude 10° 19:24:12 10° 290° (WNW) 1,674 5.9 -13.5°
Maximum altitude 19:27:49 45° 217° (SW) 673 2.8 -14.1°
Enters shadow 19:30:42 15° 148° (SSE) 1,394 3.8 -14.6°
